Lid_Strength_Index
8 8 10 10 9 8 10 11 12 11 9 10 11 11 10 8 7 7 6 6 5 4 3 2 2 1 1 1 1 0 0 -0 -0 0 1 0 0 -0 -1 -1 -2 -2 -2 -1
7 9 9 9 7 8 9 11 12 11 9 10 11 12 9 8 8 7 7 6 5 4 4 3 2 2 1 1 1 0 0 -0 -0 -0 -0 -0 -0 -0 -1 -1 -1 -1 -2 -1
8 8 8 8 9 10 8 10 12 12 10 10 11 13 11 9 8 7 6 5 4 4 4 3 3 2 1 1 1 1 0 -0 -0 -1 -0 -0 -0 -0 -0 -0 -1 -1 -1 -1
8 7 8 9 10 9 10 9 10 11 12 16 11 18 13 11 10 8 7 6 5 4 4 3 3 3 2 1 1 0 0 -0 -0 -1 -0 0 1 1 0 0 -1 -1 -1 -1
8 9 8 9 9 8 11 8 10 10 12 13 14 16 14 11 12 10 8 6 5 4 4 4 3 2 2 1 1 1 0 0 -0 -0 -0 0 1 0 -0 -0 -0 -1 -1 -1
7 7 7 7 7 7 7 9 10 10 12 17 14 15 15 13 11 9 8 7 6 4 4 3 3 2 2 1 1 1 1 0 -0 -0 -0 0 0 1 1 0 1 0 -0 -1
8 8 7 5 9 8 8 9 14 15 17 16 13 15 13 9 8 8 7 7 5 4 4 3 3 3 2 2 1 1 1 1 0 0 0 -0 0 0 0 0 1 0 0 0
10 11 7 6 7 9 9 9 13 18 18 15 13 16 12 8 7 6 6 6 6 5 4 4 3 3 2 2 1 1 1 1 1 0 0 -0 -0 0 0 -0 0 0 0 -0
10 10 7 6 7 7 10 11 9 13 12 14 13 12 10 8 8 7 6 6 6 5 4 4 3 3 2 2 2 1 1 1 1 0 0 0 -0 -0 0 -0 -0 -0 -1 -0
8 11 7 7 6 7 8 7 12 12 17 18 13 14 14 11 10 8 7 6 6 5 5 4 3 3 2 2 1 1 1 1 1 0 0 0 -0 -0 -0 -0 -0 -0 -0 -1
7 9 9 8 9 9 10 10 10 10 11 15 16 15 10 11 9 9 7 6 6 5 5 4 4 3 3 1 2 1 1 1 1 0 0 0 0 -0 -0 -0 -0 -0 -1 -1
7 8 11 10 8 7 8 9 9 12 14 12 12 14 9 9 8 7 7 6 5 4 4 4 4 3 3 2 2 2 1 1 1 0 0 0 0 -0 0 0 -0 -1 -0 -1
7 9 12 11 9 8 9 8 9 11 10 13 13 13 8 8 8 7 7 6 6 5 4 4 4 3 3 3 2 2 1 1 1 0 1 1 0 0 0 0 -0 -0 -0 -0
5 9 11 12 12 10 11 11 9 9 11 11 11 13 11 9 9 8 7 6 6 5 5 4 4 4 3 3 3 2 2 1 1 1 1 1 1 0 0 -0 -0 -0 -0 -0
6 10 10 10 10 10 11 12 10 9 10 11 11 13 11 9 9 8 7 6 6 6 5 4 4 3 3 3 3 2 2 1 1 1 1 1 0 0 -0 0 -0 -0 -0 -0
7 10 9 11 9 9 11 10 10 11 11 11 11 12 8 8 7 8 7 7 7 6 5 4 4 4 3 3 3 2 2 1 1 1 2 1 1 0 0 0 0 -0 -0 -0
8 9 10 12 10 10 12 11 10 11 10 10 12 10 8 9 8 8 7 6 6 6 5 5 4 4 3 3 2 2 2 1 1 1 1 1 1 1 1 0 0 0 0 0
8 8 9 11 11 15 10 7 8 10 9 9 9 9 8 8 7 6 6 6 6 5 5 4 4 3 3 2 2 1 1 1 1 1 2 1 1 1 1 1 1 1 1 1
6 8 11 12 12 11 10 8 9 10 11 8 9 8 7 7 6 7 6 5 5 5 4 3 3 2 2 2 2 2 2 2 2 2 2 1 1 2 2 2 1 1 1 1
7 7 9 11 14 15 11 7 6 7 12 8 8 8 7 7 9 9 5 5 6 6 6 5 3 2 2 2 1 2 2 3 4 3 2 2 2 2 2 2 3 2 2 3
9 9 10 11 11 10 7 7 6 12 11 7 6 7 7 7 7 5 4 4 4 4 4 5 6 6 4 2 2 3 4 4 4 3 3 2 2 2 3 3 3 4 4 4
10 10 11 11 12 12 6 7 9 7 6 6 6 6 6 5 5 5 4 4 3 3 4 4 4 5 5 4 5 6 6 5 4 4 4 4 2 3 3 3 3 4 4 5
10 8 9 9 9 7 5 6 5 5 6 5 5 5 5 5 5 5 4 4 3 3 4 4 4 3 4 4 5 6 6 5 5 5 5 5 5 4 3 3 3 4 3 4
8 6 8 9 7 7 6 5 4 4 5 4 4 4 4 5 4 4 4 4 3 3 4 3 3 3 4 4 5 4 5 6 6 7 7 7 6 6 5 6 3 3 3 3
7 7 8 8 6 6 6 5 4 4 4 4 4 4 4 4 5 4 4 4 4 4 4 4 3 4 4 4 4 3 4 5 6 7 7 8 8 7 8 10 11 7 8 7
6 7 8 8 5 5 5 4 3 4 4 4 4 4 4 3 4 3 4 3 3 4 4 4 4 5 5 4 4 3 3 3 4 6 7 8 8 9 9 9 10 11 12 12